Tracking 20083 objects as of 9-Dec-2019
HD Live streaming from Space Station
objects crossing your sky now

FENGYUN 1C DEB

Track FENGYUN 1C DEB now!
10-day predictions


NORAD ID: 37901
Int'l Code: 1999-025ENA
Perigee: 575.6 km
Apogee: 748.4 km
Inclination: 97.9 °
Period: 97.8 minutes
Semi major axis: 7033 km
RCS: 0.0035 m2 (small)
Launch date: May 10, 1999
Source: People's Republic of China (PRC)
Launch site: Taiyaun Space Center, China (TSC)

Note: This is SATELLITE DEBRIS
aabbcc
Your satellite tracking list
Your tracking list is empty




NASA's NSSDC Master Catalog

Two Line Element Set (TLE):
1 37901U 99025ENA 19334.43704194  .00002243  00000-0  32570-3 0  9998
2 37901  97.9146  59.3087 0122854   5.9727 354.2911 14.71937684532108
Source of the keplerian elements: AFSPC